[Iaude] MPEC C148: 2024 CL3 [a=0.93,e=0.12,i=5.2,H=26.2]
    mpec at cfa.harvard.edu 
    mpec at cfa.harvard.edu
       
    Tue Feb 13 08:33:37 EST 2024
    
    
  
M.P.E.C. 2024-C148                            Issued 2024 February 13, 13:31 UT
     The Minor Planet Electronic Circulars contain information on unusual
         minor planets, routine data on comets and natural satellites,
         and occasional editorial announcements.  They are published
    on behalf of Division F of the International Astronomical Union by the
          Minor Planet Center, Smithsonian Astrophysical Observatory,
                          Cambridge, MA 02138, U.S.A.
			  
             Prepared using the Tamkin Foundation Computer Network
                              MPC at CFA.HARVARD.EDU
            URL https://www.minorplanetcenter.net/    ISSN 1523-6714
                                    2024 CL3                                    
Observations:
     K24C03L* C2024 02 12.41115609 50 42.764-01 25 05.94         19.79wXEC148F52
     K24C03L  C2024 02 12.42358809 50 38.037-01 23 28.13         19.75wXEC148F52
     K24C03L  C2024 02 12.43603509 50 33.267-01 21 49.71         20.22wXEC148F52
     K24C03L  C2024 02 12.44853709 50 28.485-01 20 10.98         20.07wXEC148F52
     K24C03L  C2024 02 12.50122909 50 08.275-01 13 12.21         19.71GVEC148F52
     K24C03L  C2024 02 12.50187509 50 08.030-01 13 07.13         19.70GVEC148F52
     K24C03L KB2024 02 12.95978809 48 00.56 -00 12 08.4          19.7 GXEC148I93
     K24C03L KB2024 02 12.96357809 47 59.15 -00 11 36.6          19.5 GXEC148I93
     K24C03L KB2024 02 12.96719609 47 57.79 -00 11 06.7          19.9 GXEC148I93
     K24C03L KB2024 02 12.97957609 47 53.27 -00 09 19.7          19.2 GXEC148958
     K24C03L KB2024 02 12.98311609 47 51.98 -00 08 50.2          19.4 GXEC148958
     K24C03L KB2024 02 12.98659909 47 50.59 -00 08 21.3                XEC148958
     K24C03L 1C2024 02 13.04320 09 47 27.08 -00 00 44.9          19.6 VXEC148033
     K24C03L 1C2024 02 13.04348 09 47 26.99 -00 00 42.5          19.5 VXEC148033
     K24C03L 1C2024 02 13.04377 09 47 26.87 -00 00 40.2          19.5 VXEC148033
     K24C03L 1C2024 02 13.04426 09 47 26.69 -00 00 36.1          19.2 VXEC148033
     K24C03L HB2024 02 13.05260 09 47 23.67 +00 00 49.1          19.5 GVEC148204
     K24C03L HB2024 02 13.06291 09 47 19.82 +00 02 16.8                VEC148204
     K24C03L !C2024 02 13.12038 09 47 01.67 +00 11 26.5          20.0 GVEC148J04
     K24C03L !C2024 02 13.12169 09 47 01.15 +00 11 37.3          19.7 GVEC148J04
     K24C03L KB2024 02 13.28963 09 46 13.39 +00 35 07.2          19.2 GVEC148734
     K24C03L KB2024 02 13.29734 09 46 10.31 +00 36 14.1          19.7 GVEC148734
     K24C03L KB2024 02 13.31236 09 46 04.32 +00 38 24.9          19.4 GVEC148734
     K24C03L KB2024 02 13.31988 09 46 01.31 +00 39 30.7          19.6 GVEC148734
     K24C03L KB2024 02 13.49783 09 45 18.23 +01 05 50.2          19.5 GXEC148Q06
     K24C03L KB2024 02 13.50455 09 45 15.64 +01 06 51.7          19.5 GXEC148Q06
     K24C03L KB2024 02 13.51128 09 45 12.97 +01 07 51.6          19.0 GXEC148Q06
Observer details:
033 Karl Schwarzschild Observatory, Tautenburg.  Observers S. Melnikov, C.
    Hogner, F. Ludwig, M. Hartmann, B. Stecklum.  Measurer B. Stecklum.
    1.34-m f/3 Schmidt + CCD.
204 Schiaparelli Observatory.  Observer L. Buzzi.  0.84-m f/3.5 reflector +
    CMO.
734 Farpoint Observatory, Eskridge.  Observers D. Cromer, G. Hug, D. Goodin,
    R. Valentine.  Measurer D. Cromer.  0.69-m f/3.54 reflector + CMO.
958 Observatoire de Dax.  Observer P. Dupouy.  0.50-m f/4.5 Reflector + CMO.
F52 Pan-STARRS 2, Haleakala.  Observers J. Herman, T. Lowe, P. Minguez, A.
    Schultz, I. Smith.  Measurers K. Chambers, T. de Boer, J. Fairlamb, H.
    Gao, M. Huber, C.-C. Lin, E. Magnier, Y. Ramanjooloo, R. Wainscoat, R.
    Weryk.  1.8-m Ritchey-Chretien + CCD.
I93 St Pardon de Conques.  Observer F. Losse.  0.40-m f/3.7 reflector + CCD.
J04 ESA Optical Ground Station, Tenerife.  Observers P. Ruiz, M. Micheli, F.
    Ocana, L. Conversi.  Measurers R. Kresken, M. Micheli, F. Ocana, A.
    Knofel, M. Busch, E. Schwab.  1.0-m f/4.4 reflector + CCD.
Q06 Tarui Observatory, Tarui.  Observer H. Watanabe.  0.35-m f/1.9 Schmidt-
    Cassegrain + CMO.
Orbital elements:
2024 CL3                                                 Earth MOID = 0.0164 AU
Epoch 2023 Sept. 13.0 TT = JDT 2460200.5                Veres                   
M  54.47695              (2000.0)            P               Q                  
n   1.09805540     Peri.  141.32185     +0.33921758     +0.93949504             
a   0.9305075      Node   148.42432     -0.88416842     +0.33575244             
e   0.1247538      Incl.    5.23265     -0.32121275     +0.06796595             
P   0.90           H   26.23          G   0.15           U   6                  
Residuals in seconds of arc
240212 F52  0.0   0.2+    240212 958  1.0-  0.3+    240213 J04  0.1-  0.1+
240212 F52  0.1+  0.0     240212 958  0.3-  0.0     240213 J04  0.1-  0.3-
240212 F52  0.1-  0.1+    240212 958  1.3-  0.4-    240213 734  0.3+  0.3+
240212 F52  0.1+  0.0     240213 033  0.0   0.1+    240213 734  0.2+  0.1+
240212 F52  0.1+  0.1+    240213 033  0.3+  0.1+    240213 734  0.1+  0.0
240212 F52  0.1+  0.0     240213 033  0.1+  0.0     240213 734  0.3-  0.3+
240212 I93  0.4-  0.3+    240213 033  0.1+  0.1-    240213 Q06  0.7+  1.1-
240212 I93  0.2-  0.3+    240213 204  0.0   0.1-    240213 Q06  0.5+  0.4+
240212 I93  0.2-  0.1-    240213 204  0.2+  0.2+    240213 Q06  0.6-  0.2+
Ephemeris:
2024 CL3                 a,e,i = 0.93, 0.12, 5                   q = 0.8144
Date    TT    R. A. (2000) Decl.     Delta      r    Elong.  Phase     V
2024 01 14    10 30 06.8 -19 25 45   0.1099  1.0452   121.5    53.3    23.5
...
2024 01 29    10 26 07.8 -16 53 12   0.07026 1.0370   136.6    40.7    22.1
...
2024 02 06    10 13 03.7 -11 20 51   0.05047 1.0297   149.2    29.4    21.1
...
2024 02 12    09 52 35.0 -02 16 28   0.03732 1.0228   163.3    16.1    20.0
2024 02 13    09 47 44.7 -00 03 44   0.03537 1.0216   166.2    13.3    19.8
2024 02 14    09 42 21.6 +02 24 47   0.03352 1.0203   169.0    10.7    19.6
...
2024 02 20    08 53 16.0 +23 46 30   0.02529 1.0120   157.8    21.6    19.3
...
2024 02 28    06 13 55.3 +57 00 33   0.02608 0.9994   109.6    69.0    20.7
...
2024 03 14    01 12 53.7 +56 32 43   0.05091 0.9716    62.3   115.1    24.2
M. P. C. Staff               (C) Copyright 2024 MPC           M.P.E.C. 2024-C148
    
    
More information about the Iaude
mailing list